Dewpoint
53 55 56 57 57 57 58 58 58 59 60 61 61 62 63 64 65 66 67 68 68 69 69 70 70 70 70 70 70 70 70 70 70 69 70 70 70 69 69 69 69 69 70 71 72 72 72 73 73 73 74 74 74 74 74 75 75 75 74 74 73 72 70
52 54 55 56 57 58 58 58 59 59 60 61 61 62 63 64 65 66 67 68 68 69 69 70 70 70 70 70 70 70 70 70 70 70 70 70 70 70 69 69 69 69 70 71 72 72 72 73 73 73 74 74 74 74 74 75 75 75 74 74 73 72 70
52 53 55 56 57 57 58 58 59 59 60 60 61 62 63 64 65 66 67 67 68 69 69 70 70 70 70 70 70 70 70 70 70 70 69 69 70 70 69 69 70 70 69 71 72 72 73 72 73 73 73 74 74 74 74 74 75 75 75 74 73 73 71
52 53 54 56 57 58 58 58 59 59 60 60 61 62 63 64 65 66 67 67 68 68 69 70 70 70 70 70 70 70 70 70 69 70 70 69 70 70 70 69 69 70 70 70 71 72 73 72 73 73 75 74 74 74 74 74 75 75 75 74 74 73 72
52 53 54 55 56 57 58 58 58 59 59 60 61 63 63 64 65 65 66 67 67 68 68 69 70 70 70 70 70 70 70 70 69 70 70 70 70 70 70 69 69 69 70 70 72 73 73 72 72 73 73 74 74 74 74 74 74 75 74 74 74 73 73
51 53 54 55 56 57 58 58 58 58 59 60 61 62 63 64 65 65 66 67 67 68 68 69 69 70 70 70 70 70 70 70 70 70 70 70 70 69 70 70 70 69 70 71 72 72 72 72 72 72 73 73 73 74 74 74 74 75 75 74 74 74 73
51 52 53 55 56 57 58 58 58 58 59 60 61 62 63 64 64 65 65 66 67 67 67 68 69 70 70 70 70 70 70 70 70 70 70 70 70 69 70 70 71 70 70 71 72 72 72 72 72 72 72 73 73 73 73 74 74 74 74 74 74 74 73
51 52 53 54 56 57 58 58 58 59 59 60 61 62 63 64 64 65 65 66 66 67 67 67 68 69 70 70 69 69 69 69 69 70 70 69 70 70 70 70 71 71 71 70 71 72 72 72 72 72 72 72 73 73 73 73 74 74 74 74 74 74 74
51 53 53 54 55 56 58 58 59 59 59 60 61 61 62 63 64 65 65 66 66 66 67 67 67 69 69 69 69 69 69 69 69 70 69 69 69 70 70 70 70 71 71 71 70 72 72 72 72 72 72 72 73 73 73 73 73 74 74 74 74 74 74
51 52 53 54 55 56 57 58 59 60 60 61 61 62 62 63 64 64 65 65 66 66 67 67 67 68 69 69 69 69 69 69 69 69 69 69 69 69 70 70 70 71 71 71 71 71 72 72 73 73 72 72 72 73 73 73 73 74 74 74 74 74 74
51 53 54 54 55 56 57 58 60 60 60 61 61 62 62 63 64 64 65 65 66 66 67 67 67 67 68 69 69 69 69 69 69 69 69 69 69 69 70 70 70 71 72 72 71 71 71 72 73 73 73 72 72 72 73 73 73 73 74 74 74 74 74
52 53 54 54 55 57 57 59 60 61 61 61 61 61 63 63 63 64 65 65 66 66 66 67 67 67 67 68 68 69 69 69 69 69 69 69 69 69 70 70 70 71 72 72 72 71 71 71 72 73 73 72 72 72 72 73 73 73 73 73 74 74 74
52 53 54 55 56 57 58 59 60 61 61 61 61 61 62 63 63 64 65 65 66 66 66 67 67 68 67 67 68 68 69 69 69 69 69 70 70 70 70 70 70 71 71 72 72 72 71 71 71 72 72 73 73 72 72 73 73 73 73 73 73 74 73
60 53 54 55 56 57 58 59 60 61 61 61 61 62 62 63 63 64 64 65 65 66 66 67 67 68 68 68 68 68 69 69 70 70 70 70 70 70 70 70 70 71 71 71 72 72 72 71 71 71 72 72 72 72 72 72 73 73 73 73 73 73 73
53 53 54 55 56 57 58 59 60 61 61 61 61 62 62 63 63 64 65 65 66 66 66 67 67 68 68 68 68 68 69 69 70 70 70 70 70 70 70 71 71 71 71 71 71 72 72 72 72 71 71 71 72 72 72 72 72 73 73 73 73 73 73
53 53 54 55 56 57 58 59 60 61 61 61 61 62 62 63 64 64 65 65 65 66 66 67 67 68 68 68 68 69 69 70 70 70 70 70 70 70 71 71 71 71 71 71 71 71 71 72 72 72 71 71 71 72 72 72 72 70 66 68 73 73 73
53 53 54 55 56 57 58 59 60 61 61 61 62 62 62 63 64 64 64 65 65 66 67 67 68 68 68 68 69 69 70 70 70 70 70 71 71 71 71 71 71 71 71 71 71 71 71 71 71 71 72 71 71 71 72 72 72 66 64 64 65 71 73
53 53 54 55 56 56 58 59 60 61 61 61 61 62 62 63 63 64 64 65 65 66 67 68 68 68 68 68 69 69 70 70 70 70 70 71 71 71 71 71 71 71 71 71 71 71 71 71 71 71 71 71 71 71 71 71 68 65 64 63 63 65 73
52 53 54 55 56 57 57 58 59 60 61 61 61 61 62 63 63 64 64 65 66 67 67 68 68 68 69 69 69 69 70 70 70 70 70 71 71 71 71 71 71 71 71 71 71 71 71 71 70 70 71 71 71 71 71 71 66 64 63 63 62 62 66
52 53 54 55 55 56 57 58 59 60 61 61 62 62 62 63 63 64 65 65 67 67 68 68 68 69 69 69 69 70 70 70 70 70 71 71 71 71 71 71 71 71 71 71 71 71 71 71 70 70 70 70 70 70 71 71 66 62 61 61 61 62 63
51 53 53 54 55 55 57 58 59 60 61 61 62 62 62 63 64 65 65 66 66 67 68 68 69 69 69 70 70 70 70 70 70 70 71 71 71 71 71 71 71 71 71 71 71 71 71 71 70 70 70 70 70 70 70 71 65 61 59 59 59 60 61
50 51 52 53 54 55 56 57 58 59 60 62 62 62 62 63 64 65 65 66 67 67 68 69 69 69 70 70 70 70 70 70 70 70 71 71 71 71 71 71 71 71 71 71 71 71 71 70 70 70 70 70 70 69 69 70 63 61 59 58 58 59 65
50 50 50 52 53 54 56 57 58 59 61 61 61 62 62 62 64 65 66 66 67 67 68 69 69 70 70 70 71 71 71 71 71 71 71 71 71 71 71 71 71 71 71 71 70 70 70 70 70 70 70 70 70 69 69 69 65 60 58 57 57 59 67
65 63 60 60 61 59 59 60 62 64 61 61 61 62 62 63 64 66 67 67 67 67 68 68 69 70 71 71 71 71 71 71 71 71 71 71 71 71 71 71 71 71 71 70 70 70 70 69 69 69 69 69 69 69 69 69 66 59 56 57 56 61 67
70 69 68 66 64 64 65 65 65 67 66 65 64 66 67 65 65 66 67 68 67 68 68 68 69 70 71 72 72 72 72 72 72 71 71 71 71 71 71 71 71 71 71 71 70 70 70 70 69 69 69 69 69 68 69 69 66 59 56 56 55 61 67
70 70 70 71 71 71 71 71 70 69 69 70 70 71 68 68 68 68 68 68 68 68 68 69 69 70 71 72 72 73 73 73 73 72 72 71 71 71 71 71 71 71 71 71 70 70 70 70 69 69 68 68 69 69 69 69 69 67 56 55 55 57 67
70 70 70 70 72 74 72 72 72 72 72 72 72 71 69 69 69 70 70 70 69 69 69 69 70 70 71 72 72 73 73 73 73 73 72 72 72 72 72 71 71 71 71 71 71 70 70 70 69 69 69 68 69 69 69 69 70 69 57 55 54 55 60
68 68 70 73 74 72 71 71 71 71 71 72 73 72 71 69 69 70 70 70 70 70 70 71 71 71 71 71 72 72 73 73 73 73 73 73 73 72 72 72 72 71 71 71 71 70 70 70 69 69 69 69 69 69 69 71 68 70 60 56 54 54 55
67 68 69 69 70 72 70 70 70 70 70 71 72 73 72 72 72 72 70 68 69 69 69 70 71 71 71 71 71 72 72 73 73 73 74 73 73 73 72 72 72 71 71 71 71 70 70 70 70 69 69 69 69 69 69 70 70 65 67 57 54 54 54
68 69 69 70 70 70 70 69 69 69 69 70 71 72 72 72 72 72 70 69 70 70 70 70 70 71 71 71 71 71 72 72 73 73 73 73 73 73 72 72 72 72 71 71 71 70 70 70 70 69 69 69 69 70 70 70 70 68 65 64 55 54 54
68 68 69 69 69 70 69 68 68 68 68 69 70 71 71 72 71 72 71 71 71 71 71 70 70 70 71 71 71 71 71 72 72 73 73 73 73 73 72 72 72 72 71 71 71 70 70 70 70 70 69 69 69 70 71 68 65 64 61 62 58 55 54
67 68 69 69 69 69 68 68 68 68 68 68 68 69 71 71 70 70 70 71 73 72 71 70 69 70 71 72 72 72 71 72 72 72 73 73 73 73 73 72 72 72 72 71 71 71 70 70 70 70 70 70 70 70 68 63 64 63 62 61 59 57 54
66 67 67 68 69 69 67 67 67 67 67 67 67 68 69 70 70 69 69 70 72 73 71 70 70 70 70 72 72 72 72 72 72 72 73 73 73 73 73 73 73 72 72 72 71 71 71 71 70 71 70 70 70 67 62 61 61 62 62 62 61 60 58
65 66 67 67 68 68 67 66 66 66 66 66 65 67 68 69 69 69 69 69 71 72 72 71 70 70 70 71 72 73 73 72 75 74 73 73 73 73 73 73 73 73 72 72 72 71 71 71 71 71 71 71 70 62 60 60 59 60 62 62 63 62 62
65 65 65 66 67 68 66 66 66 65 66 66 65 66 67 67 69 69 69 70 71 71 71 71 71 70 69 70 72 73 73 73 74 74 71 61 56 53 52 54 57 62 70 63 62 73 72 72 72 72 73 72 67 62 61 59 59 60 58 62 58 60 61
64 65 65 65 65 66 66 67 66 65 66 66 67 67 67 67 68 69 70 70 70 71 71 71 71 70 69 71 72 72 74 74 74 70 67 64 59 58 56 51 46 49 57 60 56 53 54 64 73 74 74 70 65 63 63 61 60 52 49 49 50 51 52
63 64 65 66 65 65 65 66 67 66 66 66 67 66 66 67 67 68 69 69 70 70 69 71 71 70 70 71 72 72 74 72 69 66 65 65 64 63 62 60 57 46 45 49 50 47 50 58 61 62 63 66 62 57 53 52 49 46 45 45 45 45 45
64 64 65 66 65 65 65 66 66 66 66 65 65 65 66 66 67 67 68 69 69 69 68 69 70 69 70 71 71 71 71 69 67 65 65 64 64 64 63 62 61 59 50 44 46 46 44 46 49 52 54 54 56 56 56 51 47 46 46 45 45 45 44